This demonstration page uses our WeatherBlox Daily Observations layout. Learn more.

Left ArrowRight Arrow

36.19886, -115.1175

Hourly Observations for December 22, 2021

Temp ( °F °C ) Dew Point ( °F °C ) Humidity (%) Winds ( mph kmh ) Pressure ( in mb ) Visibility ( mi km ) Precip ( " mm )
12:53 am 00:53 Clear 38 3.3 25 -3.9 60 60 WNW 5 7 30.21 1023 10 16 0.00 0.00
1:53 am 01:53 Clear 37 2.8 25 -3.9 62 62 WNW 3 6 30.20 1023 10 16 0.00 0.00
2:53 am 02:53 Clear 36 2.2 25 -3.9 64 64 NW 3 6 30.19 1023 9 14 0.00 0.00
3:53 am 03:53 Clear 37 2.8 24 -4.4 59 59 NW 6 9 30.19 1022 10 16 0.00 0.00
5:53 am 05:53 Clear 38 3.3 26 -3.3 62 62 Calm 30.19 1023 10 16 0.00 0.00
6:53 am 06:53 Sunny 37 2.8 25 -3.9 62 62 Calm 30.19 1023 10 16 0.00 0.00
7:53 am 07:53 Sunny 40 4.4 26 -3.3 58 58 NNW 3 6 30.21 1023 10 16 0.00 0.00
8:53 am 08:53 Sunny 44 6.7 26 -3.3 49 49 Calm 30.21 1023 10 16 0.00 0.00
9:53 am 09:53 Sunny 47 8.3 25 -3.9 42 42 ESE 5 7 30.20 1023 10 16 0.00 0.00
10:53 am 10:53 Sunny 50 10 25 -3.9 38 38 ESE 3 6 30.18 1022 10 16 0.00 0.00
11:53 am 11:53 Sunny 51 10.6 24 -4.4 35 35 E 3 6 30.15 1021 10 16 0.00 0.00
12:53 pm 12:53 Sunny 53 11.7 25 -3.9 34 34 Calm 30.12 1020 10 16 0.00 0.00
1:53 pm 13:53 Sunny 54 12.2 24 -4.4 31 31 Calm 30.11 1020 10 16 0.00 0.00
2:53 pm 14:53 Sunny 56 13.3 24 -4.4 29 29 VRB 5 7 30.10 1019 10 16 0.00 0.00
3:53 pm 15:53 Sunny 55 12.8 23 -5 29 29 E 3 6 30.08 1019 10 16 0.00 0.00
4:53 pm 16:53 Clear 53 11.7 23 -5 31 31 ESE 7 11 30.08 1019 10 16 0.00 0.00
5:53 pm 17:53 Clear 52 11.1 23 -5 32 32 ESE 3 6 30.09 1019 10 16 0.00 0.00
6:53 pm 18:53 Clear 52 11.1 23 -5 32 32 SSE 3 6 30.08 1019 10 16 0.00 0.00
7:53 pm 19:53 Clear 51 10.6 24 -4.4 35 35 Calm 30.08 1019 10 16 0.00 0.00
8:53 pm 20:53 Cloudy 51 10.6 24 -4.4 35 35 Calm 30.08 1019 10 16 0.00 0.00
9:53 pm 21:53 Cloudy 51 10.6 23 -5 33 33 SSW 3 6 30.08 1019 10 16 0.00 0.00
10:53 pm 22:53 Cloudy 51 10.6 24 -4.4 35 35 Calm 30.07 1018 10 16 0.00 0.00
11:53 pm 23:53 Cloudy 50 10 27 -2.8 41 41 N 5 7 30.07 1018 10 16 0.00 0.00

Powered by AerisWeather